Location: Franzen
(48.6167°N, 15.3833°E)
Time: 05:27:23
(UTC+00:00)

Altair - Pass Details

Date: 09 August 2021
Orbit: 1501 x 1682 km, 47.2° (Epoch: 21 September)

Event Time Altitude Azimuth Distance (km) Brightness Sun altitude
Exits shadow 00:42:42 10° 258° (WSW) 3,774 9.2 -21.9°
Reaches altitude 10° 00:42:45 10° 258° (WSW) 3,761 9.2 -21.9°
Maximum altitude 00:52:14 82° 173° (S) 1,546 7.4 -21.2°
Drops below altitude 10° 01:01:27 10° 88° (E) 3,661 9.9 -20.5°
Sets 01:04:27 0° 87° (E) 4,637 10.5 -20.2°
